STARLINK-32236, 60418

Orbit data source: Space-Track

STARLINK-32236, 60418 is a payload satellite owned by SpaceX/Seattle (US) in LEO that was launched on Sat, 10 Aug 2024 UTC via an FALCON 9 launch vehicle from the Air Force Eastern Test Range (AFETR). Payload-class satellites include a variety of spacecraft equipped with specific instruments for various scientific and technological missions. These include communications satellites like Starlink; space stations such as the ISS; scientific satellites like the Hubble; Earth observation satellites from companies like Planet Labs, Umbra, and HawkEye 360; GPS; miniature CubeSats for education and research; and military/defense satellites.

Loading next visibility...
Identifier
60418, 2024-141W
Orbit
LEO
Country
Flag of USUS
Related business
Manufacturer
SpaceX/Seattle
Mission
Operational Commercial Communications
Bus & Motor
STARLINK V2M, Unknown motor
Mass
730 kg wet, ~700 kg dry
Launch date (UTC)
2024-08-10 (1 year ago)
Launch vehicle
FALCON 9
Launch site
Air Force Eastern Test Range (AFETR)
Object type
Payload
Rocket body
Debris
Shape & HBR
Box + 2 Pan, 17.7 m
Radar Cross Section
33.884 m², Large (>1 m²)

Expand to show TLE details & history
Last TLE update: 9 hours ago

TLE from 9 hours ago
0 STARLINK-32236
1 60418U 24141W   25299.74478729  .00000624  00000-0  33188-4 0  9995
2 60418  53.1588 144.7033 0001226  92.9708 267.1433 15.30193843 69074
Epoch: 2025-10-26T17:52Z
TLE epoch observation values (Epoch: 2025-10-26T17:52:29.621Z)
Latitude
-0.00005°
Longitude
-158.77674°
Altitude
476.175 km
Speed
7.629 km/s
True Right ascension
09h 38m 48s
True Declination
0° 00' 00"
Sunlit
Object was in daylight at epoch
Visualization orbit readout
Latitude
Unknown
Longitude
Unknown
Altitude
Unknown
Speed
Unknown
Apparent Right ascension
Unknown
Apparent Declination
Unknown
Sunlit
N/A
Visualization observer readout
Local Sidereal Time
22:06:05
Azimuth
Unknown
Elevation
Unknown
Doppler factor
Unknown
Orbital elements
Apogee altitude
476.33 km
Perigee altitude
474.65 km
Semi-major axis
6,853.627 km
Eccentricity
0.00012
Inclination
53.1588°
RAAN
144.7033°
Arg. of periapsis
92.9708°
True anomaly
267.12927°
Mean anomaly
267.1433°
Eccentric anomaly
267.13628°
Mean motion
3.82527 °/min
Orbital period
94.11 mins
BSTAR
0.000033188
Loading maneuver chart data...
Computing Atmospheric mass density...
Loading historical data...
Loading historical data...
Loading historical data...
Loading historical data...
Loading historical data...
Loading historical data...
Loading historical data...

Documentation

Showing up to 5 results
|